"Pseudo-MPEC" for P11kOtf

Created 2021 Sep 15 14:07:13 UT using Find_Orb

Click here for an explanation of pseudo-MPECs

 
 Astrometry: 
     P11kOtf  C2021 09 10%acux+^:6[9s[vyo0)aWnCxer[!I`cK#8#)wAstrometry;w3Qj-F51
     P11kOtf  C2021 09 102,)2!nob%=+#\X^^'x!,md+j%]$VMeiZHU[$DBu)yX;8pB6K)8mxF51
     P11kOtf  C2021 09 10.r[2O.wrhFM$+^+88GP.C@YLYQ?1`llruTJmCJt!f%#%+.qx/!,-F51
     P11kOtf  C2021 09 10A@YTqSeWEW*t2.g/2adR@gW%O(#_)0lK*%%U2kg1K+hYrQE3;wS(F51
     P11kOtf |C2021 09 13/YX76qA=F*vK:/p'@MRL;exGd2ba?kpR#biN]iE)NA.BPYIK,UQ!807
     P11kOtf |C2021 09 13tOH^;1y5Vpg320aoT,x\M`$X?']%\4'0=OH3:GHJqi])TDx.*PD2807
     P11kOtf |C2021 09 137HD0)'6?oqOfFQy;xGepk#SEGR-,\QMSredacted;b^6CNU8E^$E807
     P11kOtf ^C2021 09 13.52302200 34 35.085-26 00 20.92   ~9DJM 21.54GVNEOCP568
     P11kOtf ^C2021 09 13.52498500 34 35.152-26 00 21.07   ~9DJM 21.58GVNEOCP568
     P11kOtf ^C2021 09 13.52596400 34 35.185-26 00 21.08   ~9DJM 21.63GVNEOCP568
     P11kOtf  C2021 09 155X`3Y]J)7I*CV6%a.-nJk*m?__Cc2v$FU*]gtOqq`bQGp^pA)h:NF51
     P11kOtf  C2021 09 15@7l)JB-Jwk-WX\aPSG8*Hbh]qsLM3mJFwtB^Dclick?P,Q.h88A9F51
     P11kOtf  C2021 09 15*;mhereHfor4Pt-VG@0;DVl?x*=rZIICk;5g.@mIexplanationgF51

Station data:
(568) Mauna Kea  (N19.826116 W155.472200)  US/Hawaii.
(807) Cerro Tololo Observatory, La Serena  (S30.169136 W70.805900)  Chile.
(F51) Pan-STARRS 1, Haleakala  (N20.707235 W156.255910)  US/Hawaii.
   Observers N. Primak, A. Schultz, S. Watters, J. Thiel, T. Goggia. Measurer
   PS1 Science Consortium. 1.8-m Ritchey-Chrétien + CCD.

Orbital elements:  P11kOtf
   Perihelion 2021 Nov 7.094886 +/- 0.0634746 TT =  2:16:38 (JD 2459525.594886)
Epoch 2021 Sep 15.0 TT = JDT 2459472.5   Earth MOID: 0.1539   Ju: 0.9412
M 348.91678163 +/- 0.1851322        (J2000 ecliptic)          AutoNEOCP
n   0.20874361 +/- 0.00345777       Peri.  356.79896 +/- 0.3186533
a   2.81445246 +/- 0.0310754        Node    45.12528 +/- 0.1996374
e   0.5930406 +/- 0.00399484        Incl.    8.55332 +/- 0.0308860
P   4.72                   H 22.8   G  0.15   U  8.9  
q 1.14536785 +/- 0.00188566    Q 4.48353707 +/- 0.0616512
From 13 observations 2021 Sept. 10-15; mean residual 0".08
Residuals in arcseconds: 
210910 F51  .03-  .01-    210913 807  .05+  .03-    210915 F51  .12+  .02+    
210910 F51  .01-  .12-    210913 807  .15-  .02+    210915 F51  .00   .00     
210910 F51  .04+  .16+    210913 568  .02+  .04+    210915 F51  .11-  .01+    
210910 F51  .00   .02+    210913 568  .01-  .01+    
210913 807  .10+  .19-    210913 568  .03-  .07+    

Ephemerides (geocentric):
Date (UTC) HH   RA              Dec         delta   r     elong  mag " sig PA
---- -- -- --  -------------   -----------  ------ ------ -----  --- ---- ---
2021 09 15 14  00 36 09.393   -26 01 36.26  .33375 1.3104 152.4 22.0 .279   8
2021 09 15 15  00 36 11.274   -26 01 36.53  .33350 1.3102 152.4 22.0 .290   8
2021 09 15 16  00 36 13.154   -26 01 36.74  .33326 1.3099 152.4 22.0 .301   8
2021 09 15 17  00 36 15.034   -26 01 36.88  .33301 1.3097 152.4 22.0 .313   7
2021 09 15 18  00 36 16.913   -26 01 36.95  .33277 1.3095 152.4 22.0 .325   7
2021 09 15 19  00 36 18.791   -26 01 36.95  .33253 1.3092 152.4 22.0 .337   7
2021 09 15 20  00 36 20.669   -26 01 36.89  .33228 1.3090 152.4 22.0 .350   7
2021 09 15 21  00 36 22.546   -26 01 36.76  .33204 1.3087 152.4 22.0 .363   7
2021 09 15 22  00 36 24.423   -26 01 36.56  .33180 1.3085 152.4 22.0 .375   7
2021 09 15 23  00 36 26.299   -26 01 36.30  .33155 1.3083 152.4 22.0 .388   6
2021 09 16 00  00 36 28.175   -26 01 35.96  .33131 1.3080 152.4 22.0 .402   6
2021 09 16 01  00 36 30.050   -26 01 35.56  .33107 1.3078 152.4 22.0 .415   6
2021 09 16 02  00 36 31.924   -26 01 35.09  .33083 1.3076 152.4 22.0 .429   6
2021 09 16 03  00 36 33.798   -26 01 34.56  .33058 1.3073 152.4 22.0 .443   6
2021 09 16 04  00 36 35.671   -26 01 33.95  .33034 1.3071 152.4 22.0 .457   6
2021 09 16 05  00 36 37.544   -26 01 33.27  .33010 1.3069 152.4 22.0 .471   6
2021 09 16 06  00 36 39.417   -26 01 32.53  .32986 1.3066 152.4 22.0 .486   5
2021 09 16 07  00 36 41.288   -26 01 31.72  .32962 1.3064 152.4 22.0 .501   5
2021 09 16 08  00 36 43.160   -26 01 30.83  .32938 1.3062 152.4 22.0 .516   5
2021 09 16 09  00 36 45.030   -26 01 29.88  .32913 1.3059 152.4 22.0 .531   5
2021 09 16 10  00 36 46.901   -26 01 28.86  .32889 1.3057 152.4 22.0 .546   5
2021 09 16 11  00 36 48.770   -26 01 27.77  .32865 1.3055 152.4 22.0 .562   5
2021 09 16 12  00 36 50.639   -26 01 26.61  .32841 1.3052 152.4 22.0 .578   5
2021 09 16 13  00 36 52.508   -26 01 25.38  .32817 1.3050 152.4 22.0 .594   5
2021 09 16 14  00 36 54.376   -26 01 24.07  .32793 1.3048 152.4 22.0 .610   5
2021 09 16 15  00 36 56.244   -26 01 22.70  .32769 1.3045 152.4 22.0 .627   5
2021 09 16 16  00 36 58.111   -26 01 21.26  .32745 1.3043 152.4 22.0 .644   5
2021 09 16 17  00 36 59.978   -26 01 19.75  .32721 1.3041 152.4 22.0 .661   5
2021 09 16 18  00 37 01.844   -26 01 18.16  .32697 1.3038 152.4 22.0 .678   5
2021 09 16 19  00 37 03.710   -26 01 16.51  .32673 1.3036 152.4 22.0 .695   4
2021 09 16 20  00 37 05.575   -26 01 14.78  .32649 1.3034 152.4 22.0 .713   4
2021 09 16 21  00 37 07.440   -26 01 12.98  .32625 1.3031 152.4 22.0 .731   4
2021 09 16 22  00 37 09.304   -26 01 11.11  .32601 1.3029 152.4 22.0 .749   4
2021 09 16 23  00 37 11.168   -26 01 09.17  .32578 1.3027 152.4 22.0 .767   4
2021 09 17 00  00 37 13.031   -26 01 07.16  .32554 1.3024 152.4 22.0 .786   4
2021 09 17 01  00 37 14.894   -26 01 05.07  .32530 1.3022 152.4 22.0 .805   4
2021 09 17 02  00 37 16.756   -26 01 02.92  .32506 1.3020 152.4 22.0 .824   4
2021 09 17 03  00 37 18.618   -26 01 00.69  .32482 1.3017 152.4 22.0 .843   4
2021 09 17 04  00 37 20.480   -26 00 58.38  .32459 1.3015 152.4 22.0 .863   4
2021 09 17 05  00 37 22.341   -26 00 56.01  .32435 1.3013 152.4 22.0 .883   4
2021 09 17 06  00 37 24.201   -26 00 53.56  .32411 1.3011 152.4 22.0 .903   4
2021 09 17 07  00 37 26.061   -26 00 51.04  .32387 1.3008 152.4 22.0 .923   4
2021 09 17 08  00 37 27.921   -26 00 48.44  .32364 1.3006 152.4 22.0 .943   4
2021 09 17 09  00 37 29.780   -26 00 45.77  .32340 1.3004 152.4 22.0 .964   4
2021 09 17 10  00 37 31.639   -26 00 43.03  .32316 1.3001 152.4 22.0 .985   4
2021 09 17 11  00 37 33.497   -26 00 40.22  .32292 1.2999 152.4 22.0 1.01   4
2021 09 17 12  00 37 35.355   -26 00 37.33  .32269 1.2997 152.4 22.0 1.03   4
2021 09 17 13  00 37 37.213   -26 00 34.36  .32245 1.2994 152.4 22.0 1.05   4